Weather History for KCEZ - April, 2013

Change the Weather History Date:

Friday, April 26, 2013

  Actual Average Record
Temperature  
Mean Temperature 51 °F 50 °F  
Max Temperature 70 °F 68 °F - ()
Min Temperature 31 °F 32 °F - ()
Degree Days  
Heating Degree Days 14 15  
Month to date heating degree days 508 483  
Since 1 July heating degree days 6106 6013  
Cooling Degree Days 0 0  
Month to date cooling degree days 0 0  
Year to date cooling degree days 0 0  
Moisture  
Dew Point 18 °F    
Average Humidity 37    
Maximum Humidity 64    
Minimum Humidity 10    
Precipitation  
Precipitation 0.00 in 0.03 in - ()
Month to date precipitation 0.10 1.02  
Year to date precipitation 2.61 4.10  
Sea Level Pressure  
Sea Level Pressure 30.06 in    
Wind  
Wind Speed 5 mph (NNW)    
Max Wind Speed 18 mph    
Max Gust Speed 28 mph    
Visibility 10 miles    
Events      
T = Trace of Precipitation, MM = Missing Value Source: NWS Daily Summary

Daily Weather History Graph

Daily Weather History Graph

Search for Another Location

Airport or City:

Trip Planner

Search our weather history database for the weather conditions in past years. The results will help you decide how hot, cold, wet, or windy it might be!

Date:

Astronomy

Apr. 26, 2013 Rise Set
Actual Time 6:25 AM MDT 7:59 PM MDT
Civil Twilight 5:57 AM MDT 8:27 PM MDT
Nautical Twilight 5:24 AM MDT 9:01 PM MDT
Astronomical Twilight 4:49 AM MDT 9:36 PM MDT
Moon 9:24 PM MDT (4/26) 6:56 AM MDT (4/26)
Length of Visible Light 14h 30m
Length of Day
13h 34m
Full, 99% of the Moon is Illuminated
Apr 26
Full
May 2
Last Quarter
May 9
New
May 17
First Quarter
May 24
Full

Hourly Weather History & Observations

Time (MDT) Temp. Windchill Dew Point Humidity Pressure Visibility Wind Dir Wind Speed Gust Speed Precip Events Conditions
1:53 AM 46.9 °F - 21.9 °F 37% 29.91 in 10.0 mi WNW 3.5 mph - N/A   Clear
2:53 AM 41.0 °F 37.1 °F 21.9 °F 47% 29.95 in 10.0 mi NE 5.8 mph - N/A   Clear
3:53 AM 37.0 °F 33.3 °F 23.0 °F 57% 29.97 in 10.0 mi North 4.6 mph - N/A   Clear
4:53 AM 36.0 °F 31.1 °F 23.0 °F 59% 30.01 in 10.0 mi East 5.8 mph - N/A   Clear
5:53 AM 34.0 °F - 23.0 °F 64% 30.04 in 10.0 mi Calm Calm - N/A   Clear
6:53 AM 32.0 °F 28.7 °F 21.9 °F 66% 30.08 in 10.0 mi ENE 3.5 mph - N/A   Clear
7:53 AM 42.1 °F - 26.1 °F 53% 30.09 in 10.0 mi Calm Calm - N/A   Clear
8:53 AM 50.0 °F - 27.0 °F 41% 30.07 in 10.0 mi Calm Calm - N/A   Clear
9:53 AM 55.9 °F - 28.9 °F 36% 30.06 in 10.0 mi Calm Calm - N/A   Clear
10:53 AM 61.0 °F - 25.0 °F 25% 30.06 in 10.0 mi Calm Calm - N/A   Clear
11:53 AM 63.0 °F - 16.0 °F 16% 30.06 in 10.0 mi Calm Calm - N/A   Clear
12:53 PM 64.9 °F - 19.0 °F 17% 30.04 in 10.0 mi WNW 6.9 mph 18.4 mph N/A   Partly Cloudy
1:53 PM 66.9 °F - 17.1 °F 15% 30.04 in 10.0 mi SW 8.1 mph 27.6 mph N/A   Scattered Clouds
2:53 PM 69.1 °F - 12.0 °F 11% 30.04 in 10.0 mi WNW 11.5 mph 19.6 mph N/A   Clear
3:53 PM 68.0 °F - 10.9 °F 11% 30.06 in 10.0 mi Variable 5.8 mph - N/A   Clear
4:53 PM 69.1 °F - 10.9 °F 11% 30.05 in 10.0 mi WSW 6.9 mph - N/A   Clear
5:53 PM 69.1 °F - 10.9 °F 11% 30.06 in 10.0 mi West 8.1 mph - N/A   Clear
6:53 PM 66.9 °F - 12.9 °F 12% 30.08 in 10.0 mi WNW 11.5 mph 16.1 mph N/A   Overcast
7:53 PM 62.1 °F - 14.0 °F 15% 30.08 in 10.0 mi NW 3.5 mph - N/A   Partly Cloudy
8:53 PM 52.0 °F - 14.0 °F 22% 30.11 in 10.0 mi Calm Calm - N/A   Clear
9:53 PM 44.1 °F 40.1 °F 16.0 °F 32% 30.14 in 10.0 mi East 6.9 mph - N/A   Clear
10:53 PM 41.0 °F 37.1 °F 15.1 °F 35% 30.15 in 10.0 mi NE 5.8 mph - N/A   Clear
11:53 PM 39.0 °F 34.8 °F 14.0 °F 36% 30.16 in 10.0 mi ENE 5.8 mph - N/A   Clear